Location: Congrier
(47.8099°N, 1.1170°W)
Time: 09:54:48
(UTC+00:00)

Daily predictions for brighter satellites

Satellite Brightness Start Highest point End
(mag) Time Altitude Azimuth Time Altitude Azimuth Time Altitude Azimuth
Cosmos 2221 3.0 20:19:32 10° N 20:23:40 44° ENE 20:27:48 10° SSE
Cosmos 2082 Rocket 3.1 20:20:15 10° SSE 20:24:52 27° ESE 20:29:32 10° NE
USA 307 4.3 20:24:46 10° WNW 20:28:32 31° SW 20:32:17 10° SSE
Cosmos 1833 Rocket 2.8 20:23:26 10° S 20:28:54 56° ESE 20:34:26 10° NE
Cosmos 2279 Rocket 4.0 20:24:26 10° N 20:30:39 77° E 20:36:51 10° SSE
Gbstr 26 Del rocket 3.7 20:28:05 10° WNW 20:31:41 45° N 20:35:28 10° ENE
Gblst 52 Del rocket 4.3 20:25:59 10° WSW 20:31:42 78° SSE 20:38:10 10° ENE
Cosmos 1242 Rocket 2.6 20:29:25 10° NNW 20:33:04 87° WSW 20:36:38 10° S
SPOT 3 Rocket 3.7 20:28:14 10° SSE 20:33:25 69° ENE 20:38:37 10° N
Terra 3.6 20:30:12 10° ESE 20:33:26 19° ENE 20:36:41 10° NNE
BREEZE-M DEB (TANK) 3.9 20:30:32 10° SSW 20:33:51 33° SE 20:42:52 10° ENE
NOSS 3-4 (A) 3.4 20:31:43 10° SW 20:37:32 82° SE 20:43:50 10° NE
NOSS 3-4 (C) 3.4 20:31:50 10° SW 20:37:38 81° SE 20:43:56 10° NE
Cosmos 773 Rocket 4.4 20:34:11 10° S 20:39:01 40° ESE 20:43:52 10° NE
USA 276 2.6 20:36:24 10° W 20:39:33 62° N 20:42:41 10° ENE
Cosmos 1953 Rocket 4.1 20:38:43 10° SSW 20:43:10 65° W 20:47:39 10° N
IGS 5A 3.6 20:39:54 10° S 20:44:03 77° WSW 20:48:13 10° NNW
ATLAS 2AS CENTAUR R/B 3.1 20:38:53 10° SSW 20:46:36 60° ESE 20:54:11 10° NE
Cosmos 1606 2.9 20:43:54 10° N 20:47:36 54° ENE 20:51:15 10° SSE
Cosmos 2369 3.8 20:44:28 10° NNW 20:50:09 75° ENE 20:55:33 11° SSE
COSMOS 2406 3.2 20:45:17 10° SSW 20:50:56 75° ESE 20:56:39 10° NNE
ERBS 2.3 20:48:51 10° NW 20:52:05 71° NE 20:54:49 14° ESE
Landsat 7 4.2 20:53:47 10° S 20:58:29 66° WSW 21:03:16 10° NNW
Cosmos 2151 3.9 20:57:41 13° SSE 21:00:54 31° E 21:04:40 10° NNE
Cosmos 1980 Rocket 2.3 20:56:20 10° NNW 21:01:57 69° ENE 21:06:48 14° SE
GP-B 4.1 20:58:07 10° NNE 21:02:04 30° E 21:05:05 15° SE
Nadezhda 4 Rocket 4.1 20:56:08 10° S 21:02:09 60° E 21:08:15 10° NNE
Cosmos 1842 Rocket 3.7 20:58:25 10° NNW 21:02:54 78° W 21:07:23 10° S
USA 267 3.8 20:57:33 10° ENE 21:03:21 33° SE 21:09:07 10° SSW
ATLAS 3B R/B 3.1 20:57:32 10° NW 21:04:33 64° NE 21:11:03 14° SE
ERS-1 Rocket 3.5 21:00:53 13° SE 21:05:02 46° ENE 21:09:51 10° N
Spot 2 Rocket 3.6 21:01:00 12° SSE 21:05:41 66° ENE 21:10:46 10° N
Cosmos 2058 3.6 21:04:32 10° SSW 21:08:39 58° WNW 21:12:49 10° N
Cosmos 2322 Rocket 3.8 21:04:23 10° N 21:08:52 24° NE 21:13:21 10° E
Cosmos 1825 4.1 21:11:00 10° SW 21:14:22 31° WNW 21:17:45 10° N
Cosmos 1076 Rocket 3.5 21:13:18 10° S 21:17:36 79° E 21:21:59 10° NNE
BREEZE-M DEB (TANK) 1.5 21:15:00 10° WSW 21:17:51 82° SSE 21:19:23 14° ENE
Cosmos 1538 Rocket 4.3 21:13:29 10° S 21:18:26 45° ESE 21:23:22 10° NNE
Resurs 01 Rocket 3.1 21:17:47 10° SSW 21:21:47 33° W 21:25:51 10° NNW
Cosmos 2098 Rocket 2.1 21:21:48 13° S 21:24:23 83° W 21:27:39 10° N
SPOT 1/Viking Rocket 4.2 21:26:43 10° S 21:31:46 52° W 21:36:52 10° NNW
SL-16 R/B 3.0 21:28:50 10° NNW 21:34:11 40° NE 21:38:08 17° ESE
RESURS DK-1 2.3 21:33:35 10° SSW 21:37:44 84° ESE 21:41:56 10° NNE
USA 234 3.7 21:32:02 10° E 21:38:27 59° NNE 21:44:52 10° NW
Cosmos 1271 Rocket 3.0 21:36:50 10° N 21:40:45 56° ENE 21:42:41 27° SE
Cosmos 44 Rocket 3.7 21:37:18 10° SW 21:42:29 72° NW 21:47:45 10° NE
ARIANE 5 R/B 3.1 21:45:54 18° S 21:49:09 59° W 21:53:35 10° NNW
SPOT 5 2.7 21:46:28 22° S 21:49:13 73° WSW 21:53:34 10° NNW
Cosmos 304 Rocket 3.8 21:45:32 10° NNW 21:50:21 70° ENE 21:52:54 27° SE
Cosmos 1633 4.0 21:48:00 10° SW 21:51:21 36° WNW 21:54:44 10° N
Cosmos 1933 3.3 21:47:19 10° N 21:51:24 82° W 21:53:36 26° S
Meteor 1-26 Rocket 4.3 21:47:30 10° N 21:53:34 82° E 21:57:21 23° SSE
BREEZE-M DEB (TANK) 4.2 21:52:35 10° WNW 21:56:23 57° SSW 22:04:29 18° SE
ISS -3.6 21:53:56 10° WNW 21:57:19 72° NNE 21:58:48 30° E
Cosmos 1697 Rocket 4.4 21:54:56 10° NW 21:59:28 25° WSW 22:03:59 10° SSW
Cosmos 923 Rocket 4.2 22:02:24 26° S 22:05:11 51° ESE 22:10:23 10° NNE
Cosmos 371 Rocket 3.9 22:01:50 10° NNW 22:06:28 49° WSW 22:09:09 23° S
Cosmos 2278 4.3 22:01:48 10° NW 22:07:14 49° WSW 22:10:39 22° S
Cosmos 2082 Rocket 2.9 22:03:07 10° SW 22:08:37 54° WNW 22:14:11 10° NNE
Terra 2.0 22:08:03 26° S 22:10:42 66° WSW 22:15:28 10° NNW
USA 276 2.4 22:12:48 10° WNW 22:15:57 64° N 22:17:00 36° E
Cosmos 2056 Rocket 4.2 22:11:36 10° NNW 22:16:47 45° ENE 22:19:23 26° ESE
Cosmos 2333 Rocket 3.9 22:12:52 10° N 22:17:25 24° NE 22:21:43 11° E
ATLAS 5 CENTAUR R/B 4.4 22:14:04 10° NNW 22:17:37 19° NNE 22:21:33 10° ENE
Cosmos 1515 Rocket 4.3 22:13:28 10° N 22:17:41 40° ENE 22:19:04 31° ESE
Gbstr 26 Del rocket 2.9 22:14:58 10° WNW 22:18:46 75° NNE 22:20:51 28° ESE
Cosmos 1092 Rocket 4.4 22:15:31 11° SSW 22:21:24 62° WNW 22:27:40 10° N
Cosmos 2360 Rocket 2.9 22:19:22 10° NNW 22:24:46 44° NE 22:27:47 24° ESE
Cosmos 1862 3.6 22:25:14 44° SE 22:25:57 50° E 22:29:48 10° NNE
ERBS 4.5 22:25:50 10° W 22:27:31 15° WSW 22:27:31 15° WSW
ALOS 2 4.2 22:26:42 20° E 22:28:16 24° ENE 22:31:50 10° N
Cosmos 1766 Rocket 3.5 22:27:29 35° S 22:29:21 87° W 22:33:47 10° N
Cosmos 1809 Rocket 4.4 22:28:49 25° S 22:32:35 89° E 22:38:47 10° N
Cosmos 1812 2.6 22:29:33 10° N 22:33:25 87° E 22:34:14 54° SSE
Meteor 2-3 Rocket 4.4 22:29:42 12° SSW 22:34:46 51° WNW 22:40:21 10° N
Cosmos 1782 3.6 22:31:11 10° NNW 22:35:03 45° W 22:36:29 31° SW
Cosmos 1371 Rocket 4.1 22:32:26 10° NNW 22:37:49 72° ENE 22:39:57 37° SE
ATLAS 2AS CENTAUR R/B 4.0 22:30:18 10° WSW 22:37:54 48° NW 22:45:15 10° NE
Cosmos 2112 Rocket 4.0 22:37:57 36° S 22:40:03 66° ESE 22:45:18 10° NNE
Cosmos 1328 Rocket 3.7 22:37:02 10° NNW 22:41:29 69° W 22:42:54 41° SSW
Cosmos 1680 Rocket 3.4 22:39:43 32° SSW 22:42:12 79° ESE 22:47:29 10° NNE
SL-27 R/B 3.8 22:43:09 27° E 22:43:09 27° E 22:45:37 10° NE
Cosmos 1980 Rocket 4.0 22:41:21 10° NW 22:45:23 21° W 22:48:34 13° SW
USA 267 3.2 22:40:15 10° NE 22:46:50 86° NW 22:53:23 10° WSW
Cosmos 1151 Rocket 4.0 22:48:36 10° NNW 22:52:39 39° W 22:54:11 29° SW
Cosmos 2322 Rocket 2.2 22:47:54 10° NNW 22:53:33 76° WSW 22:55:35 41° S
ATLAS 3B R/B 3.7 22:48:38 10° NW 22:54:59 36° WSW 22:58:17 25° SSW
Meteor 2-21 Rocket 4.4 22:55:40 33° S 22:58:41 89° W 23:04:56 10° N
Okean 3 Rocket 4.5 22:58:09 26° SW 23:00:17 45° WNW 23:04:38 10° N
Cosmos 2315 Rocket 4.3 22:54:13 10° N 23:00:27 59° ENE 23:03:02 35° SE
NOSS 2-1 (C) 4.5 23:02:14 25° ENE 23:02:14 25° ENE 23:03:55 10° NE
Meteor 2-6 Rocket 4.4 22:56:34 10° NNW 23:01:57 61° W 23:04:00 37° SSW
Cosmos 1805 Rocket 4.4 23:02:35 34° ESE 23:02:58 34° E 23:07:00 10° NNE
NOSS 2-1 (D) 4.2 23:09:40 30° ENE 23:09:40 30° ENE 23:11:39 10° NE
Cosmos 2237 4.2 23:06:57 10° NNW 23:12:39 71° WSW 23:14:27 44° S
Meteor 1-27 Rocket 3.7 23:07:48 10° N 23:13:26 81° ENE 23:15:18 44° SSE
Cosmos 1500 Rocket 3.4 23:14:13 62° SSE 23:14:53 79° E 23:19:20 10° NNE
COSMOS 2428 3.8 23:09:52 10° NNW 23:15:13 38° NE 23:18:23 21° ESE
Cosmos 2333 4.5 23:09:59 10° NNW 23:15:33 61° ENE 23:17:46 35° ESE
SL-16 R/B 3.0 23:13:04 10° NW 23:18:17 39° WSW 23:19:59 31° SW
Cosmos 1624 Rocket 4.2 23:14:54 10° NNW 23:20:01 59° WSW 23:21:19 45° SSW
Cosmos 1655 Rocket 4.1 23:18:09 33° SSW 23:21:10 74° W 23:27:35 10° N
USA 234 3.3 23:19:01 38° SSE 23:21:29 60° SW 23:27:58 10° WNW
Cosmos 2219 Rocket 2.8 23:16:31 10° NNW 23:21:59 49° NE 23:24:30 29° ESE
Cosmos 292 Rocket 3.6 23:17:15 10° NNW 23:22:02 89° ENE 23:23:00 58° SSE
Spot 4 4.1 23:25:02 47° SSW 23:26:07 59° W 23:30:53 10° NNW
Cosmos 2266 Rocket 4.0 23:23:51 36° SSW 23:26:28 75° W 23:32:41 10° N
Cosmos 2228 Rocket 2.9 23:25:08 10° N 23:29:35 88° E 23:30:09 67° SSE
Thor Agena Rocket 4.5 23:27:51 10° NNE 23:32:21 31° E 23:32:59 30° ESE
Cosmos 1743 Rocket 3.7 23:32:04 55° SW 23:32:55 71° W 23:37:24 10° N
ISS -1.2 23:31:03 10° W 23:31:45 14° W 23:31:45 14° W
Cosmos 1420 Rocket 4.1 23:30:01 10° NNW 23:35:19 66° WSW 23:36:32 50° SSW
COSMOS 2455 3.2 23:35:08 40° SE 23:36:07 43° ESE 23:41:47 10° NE
Cosmos 1515 3.8 23:41:51 10° N 23:45:31 63° ENE 23:45:31 63° ENE
Meteor 1-20 Rocket 4.2 23:47:32 50° SSE 23:48:57 73° E 23:54:35 10° NNE
Cosmos 1666 Rocket 4.0 23:49:24 46° ESE 23:49:40 47° E 23:53:55 10° NNE
Cosmos 1452 Rocket 3.4 23:44:36 10° NNW 23:49:53 88° ENE 23:51:08 54° SSE
Cosmos 1633 Rocket 3.8 23:49:55 39° E 23:50:10 39° E 23:54:14 10° NNE
Cosmos 972 Rocket 4.0 23:51:10 51° SSW 23:52:38 86° ESE 23:57:48 10° NNE
Sich 1 2.9 23:54:53 73° S 23:55:18 89° WNW 23:59:42 10° N
